Location: Nandig?ma
(16.7717°N, 80.2860°E)
Time: 09:09:54
(UTC+00:00)

Meteor 2-1 Rocket - Pass Details

Date: 03 August 2024
Orbit: 825 x 910 km, 81.3° (Epoch: 15 September)

Event Time Altitude Azimuth Distance (km) Brightness Sun altitude
Rises 13:56:01 0° 355° (N) 3,356 7.7 -11.1°
Reaches altitude 10° 13:58:24 10° 355° (N) 2,424 7.0 -11.7°
Maximum altitude 14:03:53 87° 83° (E) 836 4.1 -12.9°
Drops below altitude 10° 14:09:26 10° 174° (S) 2,450 6.3 -14.1°
Sets 14:11:51 0° 174° (S) 3,395 7.1 -14.6°
